Home   Weather   Ipswich   Past weeks

Flag for United Kingdom Past Weather in Ipswich, England, United Kingdom — Yesterday and Last 2 Weeks

Now
37 °F

Haze.


Feels Like: 31 °F
Forecast: N/A
Wind: 8 mph from Southwest

Location: Wattisham

Current Time: Jan 24, 2017 at 11:27:24 pm

Latest Report: Jan 24, 2017 at 9:50 pm


Visibility: 3 mi

Pressure: 30.36 "Hg

Humidity: 93%

Dew Point: 36 °F

Location of IpswichLocation

Past Weather in Ipswich — Graph

°F

Ipswich Temperature Yesterday

Maximum temperature yesterday: 37 °F (at 1:50 pm)
Minimum temperature yesterday: 25 °F (at 2:50 am)
Average temperature yesterday: 32 °F

High & Low Weather Summary for the Past Weeks

 TemperatureHumidityPressure
High48 °F (Jan 11, 8:50 am)100% (Jan 10, 1:50 am)30.69 "Hg (Jan 10, 1:50 am)
Low23 °F (Jan 22, 5:50 am)49% (Jan 20, 1:50 pm)29.27 "Hg (Jan 12, 7:50 pm)
Average36 °F85%30.18 "Hg
* Reported Jan 9 8:50 pm — Jan 24 8:50 pm, Ipswich, Weather by CustomWeather, © 2017

Note: Actual official high and low records may vary slightly from our data, if they occured in-between our weather recording intervals... More about our weather records

Advertising

Ipswich Weather History for the Previous 24 Hours

Scroll right to see more
 ConditionsComfort  
Time TempWeatherWind HumidityBarometerVisibility
8:50 pm
Tue, Jan 24
37 °FFog.8 mph93%30.36 "Hg2 mi
7:50 pm37 °FHaze.8 mph93%30.36 "Hg2 mi
6:50 pm37 °FHaze.7 mph93%30.36 "Hg2 mi
5:50 pm41 °FHaze.5 mph81%30.36 "Hg4 mi
4:50 pm41 °FHaze.5 mph81%30.33 "Hg4 mi
3:50 pm43 °FSunny.5 mph81%30.33 "Hg10 mi
2:50 pm46 °FSunny.3 mph71%30.33 "Hg10 mi
1:50 pm46 °FSunny.6 mph71%30.33 "Hg10 mi
12:50 pm45 °FSunny.5 mph76%30.33 "Hg10 mi
11:50 am43 °FHaze.5 mph76%30.36 "Hg5 mi
10:50 am41 °FHaze.6 mph81%30.36 "Hg4 mi
9:50 am39 °FHaze.3 mph87%30.33 "Hg4 mi
8:50 am36 °FFog.5 mph93%30.33 "Hg2 mi
7:50 am36 °FFog.2 mph93%30.33 "Hg3 mi
6:50 am36 °FFog.3 mph93%30.30 "Hg2 mi
5:50 am36 °FFog.5 mph93%30.30 "Hg1 mi
4:50 am36 °FFog.5 mph93%30.30 "Hg1 mi
3:50 am36 °FFog.3 mph100%30.30 "Hg1 mi
2:50 am36 °FFog.6 mph93%30.30 "Hg1 mi
1:50 am36 °FFog.6 mph93%30.30 "Hg1 mi
12:50 am34 °FFog.5 mph100%30.30 "Hg1 mi
11:50 pm
Mon, Jan 23
34 °FFog.3 mph100%30.30 "Hg1 mi
Weather by CustomWeather, © 2017

See weather overviewHow to use our weather pages